Flag for Cayman Islands Weather past 2 weeks in George Town, Cayman Islands

Now
79 °F

Warm.


Feels Like: 82 °F
Forecast: 81 / 84 °F
Wind: 7 mph from East

Location: Cayo Largo Del Sur

Current Time: May 30, 2015 at 4:16:47 AM

Latest Report: May 30, 2015 at 3:05 AM


Visibility: N/A

Pressure: 29.95 "Hg

Humidity: 84%

Dew point: 73 °F

Location of George TownLocation

Historic Weather in George Town — Graph

°F

George Town temperature yesterday

Maximum temperature yesterday: 84 °F (at 11:51 AM)
Minimum temperature yesterday: 79 °F (at 12:05 AM)
Average temperature yesterday: 81 °F

Past Weeks' High & Low Weather Summary

 TemperatureHumidityPressure
High88 °F (May 18, 2:51 PM)84% (May 21, 4:05 AM)30.12 "Hg (May 21, 4:05 AM)
Low75 °F (May 24, 11:05 PM)43% (May 18, 2:51 PM)29.92 "Hg (May 20, 4:52 PM)
Average83 °F68%30.03 "Hg
* Reported May 15 3:05 AM — May 30 3:05 AM, George Town, Weather by CustomWeather, © 2015

Note: Actual official high and low records may vary slightly from our data, if they occured in-between our weather recording intervals... More about our weather records

Advertising

George Town weather history for previous 24 hours

 ConditionsComfort  
Time TempWeatherWind HumidityBarometerVisibility
3:05 AM
Sat, May 30
79 °FWarm.7 mph84%29.95 "HgN/A
2:05 AM79 °FWarm.6 mph84%29.95 "HgN/A
1:05 AM79 °FWarm.13 mph84%29.98 "HgN/A
12:05 AM81 °FWarm.7 mph74%30.01 "HgN/A
11:05 PM
Fri, May 29
81 °FWarm.3 mph74%30.01 "HgN/A
10:05 PM79 °FWarm.2 mph79%29.98 "HgN/A
9:05 PM79 °FWarm.1 mph79%29.98 "HgN/A
7:51 PM81 °FPartly sunny.2 mph74%29.98 "Hg6 mi
6:51 PM81 °FPartly sunny.7 mph70%29.95 "Hg6 mi
5:51 PM82 °FPartly sunny.8 mph70%29.95 "Hg6 mi
4:51 PM84 °FPartly sunny.10 mph66%29.95 "Hg6 mi
3:53 PM84 °FPartly sunny.14 mph66%29.95 "Hg6 mi
2:51 PM84 °FPartly sunny.15 mph62%29.98 "Hg6 mi
1:51 PM84 °FPartly sunny.15 mph62%29.98 "Hg6 mi
12:52 PM82 °FBroken clouds.12 mph66%30.01 "Hg6 mi
11:51 AM84 °FBroken clouds.15 mph62%30.01 "Hg6 mi
10:51 AM82 °FPartly sunny.17 mph66%30.01 "Hg6 mi
9:51 AM82 °FBroken clouds.13 mph66%30.01 "Hg6 mi
8:52 AM81 °FBroken clouds.14 mph70%30.01 "Hg6 mi
7:56 AM81 °FBroken clouds.14 mph70%29.98 "Hg6 mi
6:51 AM81 °FBroken clouds.15 mph66%29.98 "Hg6 mi
5:51 AM79 °FPartly cloudy.12 mph74%29.95 "Hg6 mi
5:05 AM79 °FWarm.15 mph79%29.95 "HgN/A
4:05 AM79 °FWarm.12 mph79%29.95 "HgN/A
Weather by CustomWeather, © 2015

See weather overviewHow to use our weather pages